This demonstration page uses our WeatherBlox Daily Observations layout. Learn more.

Left ArrowRight Arrow

39.92423, -83.80882

Hourly Observations for August 14, 2021

Temp ( °F °C ) Dew Point ( °F °C ) Humidity (%) Winds ( mph kmh ) Pressure ( in mb ) Visibility ( mi km ) Precip ( " mm )
12:56 am 00:56 Cloudy 73 22.8 72 22.2 96 96 NW 7 11 30.11 1020 10 16 0.00 0.00
1:34 am 01:34 Cloudy 72 22 72 22 100 100 NNW 8 13 30.09 1019 10 16 0.00 0.00
1:56 am 01:56 Mostly Cloudy 71 21.7 71 21.7 100 100 N 3 6 30.12 1020 10 16 0.00 0.00
2:15 am 02:15 Mostly Cloudy 72 22 N/A N/A Calm 30.11 1020 10 16 0.00 0.00
2:27 am 02:27 Cloudy 72 22 N/A N/A N 3 6 30.10 1019 10 16 0.00 0.00
2:56 am 02:56 Cloudy 72 22 N/A N/A WNW 7 11 30.12 1020 10 16 0.00 0.00
3:56 am 03:56 Mostly Cloudy 70 21 N/A N/A N 6 9 30.12 1020 10 16 0.00 0.00
4:56 am 04:56 Mostly Clear 68 20 N/A N/A NW 6 9 30.14 1021 10 16 0.00 0.00
5:56 am 05:56 Mostly Cloudy 66 19 N/A N/A NNW 5 7 30.16 1021 10 16 0.00 0.00
6:56 am 06:56 Mostly Cloudy 67 19.4 66 18.9 97 97 N 7 11 30.17 1022 10 16 0.00 0.00
7:56 am 07:56 Cloudy 68 20 63 17.2 84 84 NNE 7 11 30.19 1022 10 16 0.00 0.00
8:56 am 08:56 Cloudy 69 20.6 62 16.7 78 78 NNE 8 13 30.21 1023 10 16 0.00 0.00
9:56 am 09:56 Cloudy 73 22.8 61 16.1 66 66 NE 12 19 30.22 1023 10 16 0.00 0.00
10:56 am 10:56 Cloudy 75 23.9 61 16.1 62 62 NE 13 20 30.23 1024 10 16 0.00 0.00
11:56 am 11:56 Cloudy 76 24.4 60 15.6 58 58 NE 10 17 30.24 1024 10 16 0.00 0.00
12:56 pm 12:56 Sunny 78 25.6 59 15 52 52 ENE 10 17 30.23 1024 10 16 0.00 0.00
1:56 pm 13:56 Sunny 79 26.1 58 14.4 49 49 ENE 12 19 30.23 1024 10 16 0.00 0.00
2:56 pm 14:56 Sunny 80 26.7 59 15 49 49 ENE 12 19 30.21 1023 10 16 0.00 0.00
3:56 pm 15:56 Sunny 80 26.7 60 15.6 51 51 NNE 13 20 30.19 1023 10 16 0.00 0.00
4:56 pm 16:56 Sunny 79 26.1 60 15.6 52 52 NE 13 20 30.19 1022 10 16 0.00 0.00
5:56 pm 17:56 Sunny 78 25.6 59 15 52 52 NE 12 19 30.18 1022 10 16 0.00 0.00
6:56 pm 18:56 Sunny 77 25 58 14.4 52 52 NE 12 19 30.18 1022 10 16 0.00 0.00
7:56 pm 19:56 Sunny 73 22.8 61 16.1 66 66 NE 8 13 30.18 1022 10 16 0.00 0.00
8:56 pm 20:56 Clear 71 21.7 61 16.1 71 71 NNE 12 19 30.20 1023 10 16 0.00 0.00
9:56 pm 21:56 Clear 68 20 63 17.2 84 84 NE 13 20 30.23 1024 10 16 0.00 0.00
10:56 pm 22:56 Clear 66 18.9 61 16.1 84 84 NE 12 19 30.24 1024 10 16 0.00 0.00
11:56 pm 23:56 Clear 64 17.8 62 16.7 93 93 NE 9 15 30.23 1024 10 16 0.00 0.00

Powered by AerisWeather